Location: Wanzleben
(52.0609°N, 11.4408°E)
Time: 02:35:09
(UTC+00:00)

COSMOS 2406 - Pass Details

Date: 25 January 2021
Orbit: 841 x 865 km, 71.0° (Epoch: 05 March)

Event Time Altitude Azimuth Distance (km) Brightness Sun altitude
Rises 19:55:21 0° 316° (NW) 3,458 7.1 -37.2°
Reaches altitude 10° 19:59:29 10° 287° (WNW) 2,511 6.4 -37.8°
Maximum altitude 20:01:36 12° 266° (W) 2,356 6.1 -38.2°
Drops below altitude 10° 20:03:43 10° 244° (WSW) 2,501 6.0 -38.5°
Sets 20:07:50 0° 215° (SW) 3,426 6.5 -39.0°
